Tracking 25648 objects as of 18-May-2022
HD Live streaming from Space Station
objects crossing your sky now

SATCOM 3 DEB

Track SATCOM 3 DEB now!


NORAD ID: 29003
Int'l Code: 1979-101F
Perigee: 7,908.0 km
Apogee: 35,756.6 km
Inclination: 6.9 °
Period: 785.6 minutes
Semi major axis: 28203 km
RCS: 0.1589 m2 (medium)
Launch date: December 7, 1979
Source: United States (US)
Launch site: AIR FORCE EASTERN TEST RANGE (AFETR)

Note: This is SATELLITE DEBRIS
aabbcc
Your satellite tracking list
Your tracking list is empty




NASA's NSSDC Master Catalog

Two Line Element Set (TLE):
1 29003U 79101F   22137.13411840 -.00000060  00000-0  00000-0 0  9996
2 29003   6.8823 197.9103 4937111 255.4300  53.0644  1.83296133 59257
Source of the keplerian elements: AFSPC